Hourly Data Report for October 06, 2016

All times are specified in Local Standard Time (LST). Add 1 hour to adjust for Daylight Saving Time where and when it is observed.

OTTAWA INTL A
ONTARIO

45°19'00.000" N
75°40'00.000" W
114.90 m
6106001
71628
YOW

Download Data

Hourly Data (October 2016)
Hourly Data Report for October 6, 2016
Temp Definition
°C
Dew Point Temp Definition
°C
Rel Hum Definition
%
Wind Dir Definition
10's deg

Wind Spd Definition
km/h
Visibility Definition
km
Stn Press Definition
kPa
Hmdx Definition


Wind Chill Definition


Weather Definition


TIME
00:00 Legend Double Dagger 12.1 10.9 92 15 13 24.1 100.98     LegendNANA
01:00 Legend Double Dagger 11.1 10.3 95 16 8 24.1 101.00     Clear
02:00 Legend Double Dagger 11.1 10.7 97 16 5 24.1 100.97     LegendNANA
03:00 Legend Double Dagger 10.1 9.5 96 14 5 24.1 100.95     LegendNANA
04:00 Legend Double Dagger 9.9 9.5 97 16 7 24.1 100.98     Clear
05:00 Legend Double Dagger 8.0 7.6 97 8 6 24.1 101.00     LegendNANA
06:00 Legend Double Dagger 7.7 7.6 99 19 5 16.1 101.03     LegendNANA
07:00 Legend Double Dagger 9.1 9.0 99 14 7 24.1 101.02     Clear
08:00 Legend Double Dagger 13.2 12.1 93 18 10 24.1 101.07     LegendNANA
09:00 Legend Double Dagger 15.9 13.1 83 17 13 24.1 101.07     LegendNANA
10:00 Legend Double Dagger 18.1 13.7 75 21 7 24.1 101.06     Mostly Cloudy
11:00 Legend Double Dagger 18.8 13.3 70 19 9 24.1 101.06     LegendNANA
12:00 Legend Double Dagger 20.3 14.1 67 27 7 24.1 101.10     LegendNANA
13:00 Legend Double Dagger 21.2 14.0 63 28 5 24.1 101.03 25   Mainly Clear
14:00 Legend Double Dagger 21.5 14.3 63 21 12 24.1 101.04 25   LegendNANA
15:00 Legend Double Dagger 22.0 15.0 64 22 9 24.1 101.04 26   LegendNANA
16:00 Legend Double Dagger 21.7 14.5 63 20 8 24.1 101.03 25   Clear
17:00 Legend Double Dagger 20.3 14.7 70 19 7 24.1 101.05     LegendNANA
18:00 Legend Double Dagger 17.4 14.3 82 15 4 24.1 101.09     LegendNANA
19:00 Legend Double Dagger 15.9 14.3 90 14 9 24.1 101.13     Clear
20:00 Legend Double Dagger 16.5 13.8 84 16 9 24.1 101.15     LegendNANA
21:00 Legend Double Dagger 16.0 13.9 87 17 6 24.1 101.16     LegendNANA
22:00 Legend Double Dagger 12.9 12.1 95 18 6 24.1 101.17     Clear
23:00 Legend Double Dagger 12.3 11.2 93 36 2 24.1 101.15     LegendNANA

Notes on Data Quality.

Legend

  • E = Estimated
  • M = Missing
  • NA = Not Available
  • ‡ = Partner data that is not subject to review by the National Climate Archives
Date modified: